Location: ???????
(56.2167°N, 38.0500°E)
Time: 06:48:56
(UTC+00:00)

Cosmos 2219 Rocket - Pass Details

Date: 19 May 2025
Orbit: 828 x 844 km, 71.0° (Epoch: 15 June)

Event Time Altitude Azimuth Distance (km) Brightness Sun altitude
Rises 18:52:36 0° 316° (NW) 3,406 7.6 -7.4°
Reaches altitude 10° 18:55:34 10° 330° (NNW) 2,466 6.4 -7.6°
Maximum altitude 19:00:04 24° 23° (NNE) 1,689 4.2 -8.0°
Drops below altitude 10° 19:04:33 10° 76° (ENE) 2,451 4.4 -8.3°
Sets 19:07:29 0° 91° (E) 3,380 5.0 -8.5°
